Flag for U.S.A. Weather past 2 weeks in Asheville, North Carolina, U.S.A.

Now
65 °F

Passing clouds.


Feels Like: 65 °F
Forecast: 66 / 78 °F
Wind: 3 mph from North

Location: Asheville Regional Airport

Current Time: Jul 3, 2015 at 3:18:11 AM

Latest Report: Jul 3, 2015 at 2:54 AM


Visibility: 10 mi

Pressure: 29.90 "Hg

Humidity: 94%

Dew point: 63 °F

Location of AshevilleLocation

Historic Weather in Asheville — Graph

°F

Asheville temperature yesterday

Maximum temperature yesterday: 75 °F (at 4:54 PM)
Minimum temperature yesterday: 64 °F (at 6:54 AM)
Average temperature yesterday: 69 °F

Past Weeks' High & Low Weather Summary

 TemperatureHumidityPressure
High90 °F (Jun 24, 3:54 PM)97% (Jun 18, 5:54 AM)30.20 "Hg (Jun 18, 5:54 AM)
Low55 °F (Jun 29, 5:54 AM)36% (Jun 22, 1:54 PM)29.77 "Hg (Jun 27, 4:54 PM)
Average73 °F72%30.00 "Hg
* Reported Jun 18 1:58 AM — Jul 3 1:54 AM, Asheville, Weather by CustomWeather, © 2015

Note: Actual official high and low records may vary slightly from our data, if they occured in-between our weather recording intervals... More about our weather records

Advertising

Asheville weather history for previous 24 hours

 ConditionsComfort  
Time TempWeatherWind HumidityBarometerVisibility
1:54 AM
Fri, Jul 3
66 °FPassing clouds.No wind90%29.92 "Hg10 mi
12:54 AM66 °FPassing clouds.No wind90%29.94 "Hg10 mi
11:54 PM
Thu, Jul 2
67 °FClear.No wind90%29.94 "Hg10 mi
10:54 PM68 °FClear.No wind87%29.95 "Hg10 mi
9:54 PM69 °FPassing clouds.No wind87%29.94 "Hg10 mi
8:54 PM70 °FHaze.5 mph84%29.92 "Hg10 mi
7:54 PM74 °FSunny.6 mph71%29.90 "Hg10 mi
6:54 PM74 °FSunny.6 mph71%29.91 "Hg10 mi
5:54 PM75 °FSunny.No wind64%29.90 "Hg10 mi
4:54 PM75 °FSunny.6 mph60%29.89 "Hg10 mi
3:54 PM72 °FSunny.5 mph71%29.92 "Hg10 mi
2:54 PM72 °FMore clouds than sun.5 mph81%29.95 "Hg10 mi
1:54 PM70 °FLight rain. Overcast.No wind81%29.95 "Hg10 mi
12:54 PM69 °FMore clouds than sun.3 mph87%29.97 "Hg9 mi
11:54 AM68 °FLight rain. More clouds than sun.3 mph87%29.99 "Hg7 mi
10:54 AM68 °FOvercast.No wind84%29.97 "Hg6 mi
9:54 AM67 °FLight rain. Fog.5 mph90%29.98 "Hg5 mi
8:54 AM67 °FOvercast.No wind87%29.96 "Hg9 mi
7:54 AM66 °FMore clouds than sun.No wind87%29.97 "Hg7 mi
6:54 AM64 °FFog.No wind94%29.96 "Hg6 mi
5:54 AM66 °FPassing clouds.3 mph87%29.95 "Hg10 mi
4:54 AM66 °FMostly cloudy.No wind87%29.93 "Hg8 mi
3:54 AM66 °FPartly cloudy.No wind87%29.94 "Hg9 mi
Weather by CustomWeather, © 2015

See weather overviewHow to use our weather pages